Location: Newark
(57.7279°N, 5.6916°W)
Time: 22:37:57
(UTC+00:00)

N. Korean satellite - Pass Details

Date: 14 December 2019
Orbit: 454 x 508 km, 97.2° (Epoch: 18 January)

Event Time Altitude Azimuth Distance (km) Brightness Sun altitude
Rises 17:05:44 0° 165° (SSE) 2,599 10.4 -10.5°
Reaches altitude 10° 17:07:49 10° 166° (SSE) 1,713 9.5 -10.8°
Maximum altitude 17:11:31 86° 253° (WSW) 509 6.7 -11.2°
Drops below altitude 10° 17:15:12 10° 345° (NNW) 1,702 9.2 -11.6°
Sets 17:17:16 0° 346° (NNW) 2,581 10.1 -11.9°
